When you browse on this site, cookies collect data to enhance your experience and personalize the content and advertising you see.
Visit our Privacy Policy to learn more. By continuing to use the site, you agree to this use of cookies and data.
EN

Hourly Weather Gjirokaster

Today, 13 July, Monday

Time Temperature Precipitation Wind Pressure Humidity
00:00 +16°C° 0 mm 2 mps 652 mmHg 78%
01:00 +16°C° 0 mm 2 mps 652 mmHg 78%
02:00 +16°C° 0 mm 2 mps 651 mmHg 78%
03:00 +16°C° 0 mm 2 mps 651 mmHg 79%
04:00 +15°C° 0 mm 2 mps 651 mmHg 79%
05:00 +17°C° 0 mm 2 mps 651 mmHg 74%
06:00 +18°C° 0 mm 2 mps 652 mmHg 69%
07:00 +20°C° 0 mm 2 mps 653 mmHg 63%
08:00 +21°C° 0 mm 2 mps 653 mmHg 58%
09:00 +23°C° 0 mm 2 mps 653 mmHg 53%
10:00 +24°C° 0 mm 3 mps 654 mmHg 48%
11:00 +25°C° 0 mm 3 mps 654 mmHg 44%
12:00 +25°C° 0 mm 3 mps 653 mmHg 41%
13:00 +26°C° 0 mm 4 mps 653 mmHg 38%
14:00 +25°C° 0 mm 4 mps 653 mmHg 39%
15:00 +25°C° 0 mm 4 mps 653 mmHg 41%
16:00 +24°C° 0 mm 3 mps 652 mmHg 42%
17:00 +22°C° 0 mm 3 mps 652 mmHg 49%
18:00 +20°C° 0 mm 3 mps 651 mmHg 56%
19:00 +18°C° 0 mm 2 mps 651 mmHg 63%
20:00 +17°C° 0 mm 2 mps 651 mmHg 63%
21:00 +16°C° 0 mm 2 mps 651 mmHg 63%
22:00 +16°C° 0 mm 2 mps 651 mmHg 63%
23:00 +15°C° 0 mm 2 mps 651 mmHg 61%

Tomorrow, 14 July, Tuesday

Time Temperature Precipitation Wind Pressure Humidity
00:00 +15°C° 0 mm 2 mps 651 mmHg 59%
01:00 +14°C° 0 mm 2 mps 651 mmHg 57%
02:00 +14°C° 0 mm 2 mps 650 mmHg 55%
03:00 +15°C° 0 mm 2 mps 650 mmHg 54%
04:00 +15°C° 0 mm 2 mps 650 mmHg 52%
05:00 +15°C° 0 mm 2 mps 651 mmHg 52%
06:00 +16°C° 0 mm 1 mps 651 mmHg 52%
07:00 +18°C° 0 mm 1 mps 652 mmHg 52%
08:00 +20°C° 0 mm 1 mps 652 mmHg 50%
09:00 +21°C° 0 mm 1 mps 653 mmHg 48%
10:00 +23°C° 0 mm 1 mps 653 mmHg 46%
11:00 +22°C° 0.1 mm 1 mps 653 mmHg 48%
12:00 +21°C° 0.1 mm 2 mps 653 mmHg 49%
13:00 +21°C° 0.1 mm 2 mps 653 mmHg 51%
14:00 +21°C° 0.2 mm 2 mps 652 mmHg 53%
15:00 +20°C° 0.2 mm 2 mps 652 mmHg 56%
16:00 +21°C° 0.2 mm 1 mps 652 mmHg 59%
17:00 +20°C° 0.1 mm 1 mps 652 mmHg 64%
18:00 +19°C° 0.1 mm 1 mps 651 mmHg 69%
19:00 +16°C° 0.1 mm 1 mps 651 mmHg 74%
20:00 +16°C° 0 mm 1 mps 651 mmHg 75%
21:00 +15°C° 0 mm 1 mps 651 mmHg 77%
22:00 +14°C° 0 mm 1 mps 651 mmHg 78%
23:00 +14°C° 0 mm 1 mps 651 mmHg 79%

Day after tomorrow, 15 July, Wednesday

Time Temperature Precipitation Wind Pressure Humidity
00:00 +14°C° 0 mm 1 mps 651 mmHg 80%
01:00 +14°C° 0 mm 1 mps 651 mmHg 80%
02:00 +13°C° 0 mm 1 mps 651 mmHg 81%
03:00 +13°C° 0 mm 1 mps 651 mmHg 81%
04:00 +13°C° 0 mm 1 mps 651 mmHg 82%
05:00 +15°C° 0 mm 1 mps 652 mmHg 76%
06:00 +15°C° 0 mm 0 mps 652 mmHg 71%
07:00 +17°C° 0 mm 0 mps 653 mmHg 66%
08:00 +20°C° 0 mm 1 mps 654 mmHg 60%
09:00 +21°C° 0 mm 1 mps 654 mmHg 55%
10:00 +23°C° 0 mm 1 mps 654 mmHg 50%
11:00 +23°C° 0.1 mm 2 mps 654 mmHg 49%
12:00 +23°C° 0.1 mm 2 mps 654 mmHg 49%
13:00 +22°C° 0.1 mm 3 mps 654 mmHg 49%
14:00 +22°C° 0.2 mm 3 mps 654 mmHg 52%
15:00 +21°C° 0.2 mm 3 mps 654 mmHg 54%
16:00 +21°C° 0.2 mm 3 mps 654 mmHg 57%
17:00 +19°C° 0.1 mm 2 mps 653 mmHg 62%
18:00 +19°C° 0.1 mm 1 mps 653 mmHg 68%
19:00 +16°C° 0.1 mm 1 mps 652 mmHg 73%
20:00 +16°C° 0 mm 1 mps 652 mmHg 75%
21:00 +15°C° 0 mm 1 mps 652 mmHg 76%
22:00 +13°C° 0 mm 0 mps 652 mmHg 77%
23:00 +13°C° 0 mm 0 mps 652 mmHg 76%

16 July, Thursday

Time Temperature Precipitation Wind Pressure Humidity
00:00 +13°C° 0 mm 0 mps 652 mmHg 75%
01:00 +12°C° 0 mm 0 mps 651 mmHg 73%
02:00 +12°C° 0 mm 0 mps 651 mmHg 72%
03:00 +13°C° 0 mm 1 mps 651 mmHg 71%
04:00 +13°C° 0 mm 1 mps 651 mmHg 70%
05:00 +14°C° 0 mm 0 mps 651 mmHg 64%
06:00 +15°C° 0 mm 0 mps 652 mmHg 58%
07:00 +17°C° 0 mm 0 mps 652 mmHg 52%
08:00 +21°C° 0 mm 1 mps 653 mmHg 48%
09:00 +22°C° 0 mm 1 mps 653 mmHg 45%
10:00 +23°C° 0 mm 1 mps 653 mmHg 41%
11:00 +24°C° 0 mm 2 mps 653 mmHg 41%
12:00 +24°C° 0 mm 2 mps 653 mmHg 41%
13:00 +24°C° 0 mm 2 mps 653 mmHg 41%
14:00 +24°C° 0 mm 2 mps 652 mmHg 43%
15:00 +23°C° 0 mm 2 mps 652 mmHg 45%
16:00 +23°C° 0 mm 2 mps 652 mmHg 47%
17:00 +20°C° 0 mm 2 mps 651 mmHg 53%
18:00 +20°C° 0 mm 1 mps 651 mmHg 58%
19:00 +18°C° 0 mm 1 mps 650 mmHg 64%
20:00 +16°C° 0 mm 1 mps 650 mmHg 66%
21:00 +16°C° 0 mm 1 mps 650 mmHg 68%
22:00 +15°C° 0 mm 1 mps 650 mmHg 69%
23:00 +14°C° 0 mm 0 mps 649 mmHg 69%

17 July, Friday

Time Temperature Precipitation Wind Pressure Humidity
00:00 +14°C° 0 mm 0 mps 649 mmHg 70%
01:00 +13°C° 0 mm 0 mps 649 mmHg 70%
02:00 +14°C° 0 mm 1 mps 649 mmHg 70%
03:00 +14°C° 0 mm 1 mps 648 mmHg 70%
04:00 +14°C° 0 mm 1 mps 648 mmHg 70%
05:00 +15°C° 0 mm 1 mps 649 mmHg 64%
06:00 +18°C° 0 mm 1 mps 649 mmHg 58%
07:00 +20°C° 0 mm 1 mps 650 mmHg 52%
08:00 +22°C° 0 mm 1 mps 650 mmHg 48%
09:00 +23°C° 0 mm 1 mps 650 mmHg 43%
10:00 +25°C° 0 mm 1 mps 651 mmHg 38%
11:00 +25°C° 0 mm 1 mps 651 mmHg 38%
12:00 +25°C° 0 mm 2 mps 650 mmHg 39%
13:00 +25°C° 0 mm 2 mps 650 mmHg 39%
14:00 +24°C° 0 mm 2 mps 650 mmHg 42%
15:00 +24°C° 0 mm 2 mps 649 mmHg 45%
16:00 +23°C° 0 mm 2 mps 649 mmHg 48%
17:00 +21°C° 0.1 mm 2 mps 649 mmHg 54%
18:00 +20°C° 0.1 mm 1 mps 648 mmHg 61%
19:00 +18°C° 0.1 mm 1 mps 648 mmHg 67%
20:00 +18°C° 0 mm 1 mps 648 mmHg 69%
21:00 +16°C° 0 mm 1 mps 648 mmHg 71%
22:00 +15°C° 0 mm 1 mps 648 mmHg 73%
23:00 +15°C° 0 mm 1 mps 648 mmHg 74%

18 July, Saturday

Time Temperature Precipitation Wind Pressure Humidity
00:00 +15°C° 0 mm 1 mps 648 mmHg 75%
01:00 +15°C° 0 mm 1 mps 648 mmHg 76%
02:00 +14°C° 0 mm 1 mps 648 mmHg 77%
03:00 +14°C° 0 mm 1 mps 648 mmHg 78%
04:00 +14°C° 0 mm 1 mps 648 mmHg 79%
05:00 +15°C° 0 mm 1 mps 648 mmHg 73%
06:00 +18°C° 0 mm 1 mps 649 mmHg 67%
07:00 +20°C° 0 mm 1 mps 649 mmHg 61%
08:00 +21°C° 0.3 mm 1 mps 649 mmHg 58%
09:00 +21°C° 0.3 mm 2 mps 650 mmHg 54%
10:00 +23°C° 0.3 mm 2 mps 650 mmHg 51%
11:00 +23°C° 0.7 mm 2 mps 650 mmHg 52%
12:00 +21°C° 0.7 mm 2 mps 650 mmHg 54%
13:00 +21°C° 0.7 mm 3 mps 649 mmHg 55%
14:00 +21°C° 0.7 mm 3 mps 649 mmHg 56%
15:00 +21°C° 0.7 mm 3 mps 649 mmHg 56%
16:00 +21°C° 0.7 mm 3 mps 649 mmHg 57%
17:00 +19°C° 0.5 mm 2 mps 649 mmHg 62%
18:00 +18°C° 0.5 mm 2 mps 649 mmHg 68%
19:00 +17°C° 0.5 mm 2 mps 649 mmHg 73%
20:00 +16°C° 0.1 mm 2 mps 649 mmHg 76%
21:00 +15°C° 0.1 mm 2 mps 649 mmHg 79%
22:00 +14°C° 0.1 mm 2 mps 649 mmHg 82%
23:00 +14°C° 0 mm 2 mps 649 mmHg 82%
Show more